User: anonymous   Login
Location: ?????
(55.6500°N, 37.2500°E)
Time: 23:43:51
(UTC+00:00)
Language:

Cosmos 1331 Rocket - Orbit

View from above orbital plane
View from above orbital plane
View from above satellite
View from above satellite

Ground track
Ground track

The orbit data is extracted from the following two-line orbital elements,

1 13028U 82001B   25189.54551699  .00000210  00000-0  75231-4 0  9999
2 13028  74.0412   3.9342 0018424  78.2264 282.0956 14.39686721280136
Epoch (UTC): 08 July 2025 13:05:32
Eccentricity: 0.0018424
inclination: 74.0412°
perigee height: 746 km
apogee height: 772 km
right ascension of ascending node: 3.9342°
argument of perigee: 78.2264°
revolutions per day: 14.39686721
mean anomaly at epoch: 282.0956°
orbit number at epoch: 28013

The dashed part of the orbit path shows where the satellite is in the earth's shadow,  

DLR